Wind_Speed
14 14 12 11 10 9 9 8 8 8 8 8 11 14 17 18 19 20 23 24 22 20 19 19 19 19 16 12 11 12 14 18 21 22 20 20 20 17 18 16 15 18 18 17 12
18 16 15 14 12 10 9 9 8 8 8 8 9 12 16 18 17 18 28 27 24 22 20 21 18 15 13 8 7 10 14 20 19 21 20 16 16 15 14 15 13 18 17 17 15
21 20 18 16 15 13 11 9 9 8 8 8 9 11 15 19 20 27 25 23 27 25 24 23 19 14 7 3 5 11 17 16 15 21 19 15 12 13 13 14 13 14 16 14 14
24 23 22 20 18 16 14 11 10 10 9 10 10 11 15 20 24 26 19 23 27 29 30 27 19 15 10 9 5 11 16 17 15 21 18 17 15 14 11 11 14 11 14 14 14
28 26 25 23 21 19 17 14 12 11 11 12 12 13 15 17 21 17 21 25 27 30 32 27 22 19 16 10 6 17 19 22 16 20 18 19 22 14 12 11 12 11 12 13 13
20 29 29 26 24 23 21 19 15 13 13 13 15 14 15 15 16 18 23 25 28 31 31 27 25 21 15 12 7 21 22 25 22 16 12 18 22 17 16 13 10 9 9 11 12
8 8 26 31 28 26 25 22 20 16 15 16 16 17 16 14 18 19 20 24 27 31 31 30 28 23 20 15 7 11 21 26 27 24 22 20 20 20 20 15 9 9 9 9 9
10 9 9 17 31 31 28 25 24 21 17 18 18 18 17 20 21 22 23 25 28 31 33 31 30 28 25 21 12 3 19 19 26 25 23 19 16 20 22 18 10 8 9 8 6
12 11 11 10 10 31 32 29 26 24 21 19 20 20 22 23 23 22 23 25 27 29 34 35 32 32 28 24 13 4 15 23 24 18 16 15 15 17 19 19 15 8 9 7 6
14 14 13 13 13 11 26 33 30 27 25 22 23 23 23 22 20 23 24 24 26 27 32 35 34 34 33 28 14 9 17 16 18 16 9 7 13 12 13 13 16 15 8 6 4
14 14 15 14 16 16 10 19 32 29 29 29 26 27 26 24 24 26 26 26 25 25 27 28 29 21 26 30 26 14 16 15 14 13 6 9 10 6 7 8 10 12 10 6 5
16 16 17 15 17 19 17 12 12 31 31 33 32 29 29 28 27 28 28 27 24 22 21 21 19 27 35 32 25 16 16 12 7 3 7 8 10 11 12 7 5 5 9 8 9
20 20 21 20 19 21 20 17 15 13 32 35 35 32 33 32 31 29 28 28 26 24 19 16 18 30 29 24 25 21 12 8 5 11 8 9 12 13 14 12 6 3 2 6 10
27 26 25 27 25 25 24 21 19 20 17 32 37 38 37 33 34 34 31 30 28 25 22 23 26 32 30 27 26 26 18 14 12 16 18 14 10 12 13 14 8 8 5 9 7
34 33 31 31 30 29 27 26 23 24 19 19 38 38 41 37 33 35 33 33 30 28 30 27 35 36 34 32 28 22 20 19 22 22 22 18 15 9 12 14 9 5 1 4 4
39 39 36 34 34 34 30 29 28 29 24 19 19 39 42 41 39 41 40 38 35 35 34 34 39 39 37 36 35 28 26 24 26 26 24 22 19 16 16 11 10 8 8 3 2
45 45 42 39 40 41 38 37 36 34 25 22 24 23 40 45 43 43 43 43 43 41 39 38 42 42 40 43 42 39 34 33 34 31 19 20 19 21 22 16 14 12 9 4 4
54 51 50 45 45 44 42 42 42 37 32 29 28 27 25 41 46 44 46 46 45 43 39 38 43 42 37 41 39 37 39 37 37 34 30 25 13 13 16 17 18 16 15 14 11
55 58 57 55 51 50 47 48 44 41 40 32 29 32 31 35 42 49 49 47 44 44 43 41 43 44 40 45 42 41 43 35 40 38 37 31 19 16 14 14 16 18 12 9 10
59 58 58 56 56 56 56 55 52 46 45 38 35 37 36 33 40 46 52 51 49 47 46 45 40 44 43 45 50 47 41 45 47 44 42 39 31 22 17 17 18 17 16 15 15
68 64 65 64 61 60 60 59 54 50 46 50 38 41 41 39 38 45 49 52 50 49 48 49 47 45 48 47 45 48 50 47 42 44 43 42 32 27 25 23 21 24 22 15 17
75 74 71 69 69 66 63 60 57 53 53 50 44 45 47 46 42 39 50 50 54 52 53 50 51 49 50 50 49 47 46 44 42 41 41 40 32 26 28 30 24 29 25 22 16
80 80 78 75 73 71 70 66 64 61 58 57 53 48 51 50 48 46 46 49 54 55 54 53 57 55 51 53 53 54 52 48 44 43 44 44 34 27 29 30 26 24 24 25 20
79 78 79 79 78 76 75 72 70 67 63 62 61 54 55 56 54 52 53 50 52 57 57 55 59 61 59 54 53 53 50 48 46 45 42 41 37 30 29 32 32 33 28 28 25
74 75 75 76 78 78 80 78 76 72 71 68 67 62 60 62 60 58 58 55 54 50 52 59 60 60 59 55 52 51 49 48 50 47 45 37 40 35 31 25 25 25 30 28 28
54 58 63 68 71 74 75 76 79 78 75 73 72 68 63 65 66 65 62 60 56 49 47 53 57 56 60 58 58 56 56 53 51 51 46 44 42 28 26 24 20 22 25 27 28
43 47 48 52 60 67 69 74 76 79 77 76 76 73 67 68 70 70 67 64 58 56 53 54 55 55 62 59 58 62 59 57 55 53 49 48 42 37 31 25 20 19 19 20 23
Wind_Direction
250 247 245 246 245 241 238 239 242 237 223 215 214 214 211 211 207 203 197 196 194 186 177 170 147 135 125 119 98 78 61 59 70 58 47 55 59 57 70 64 74 70 70 75 82
251 251 252 249 250 246 243 240 236 238 230 219 209 206 207 206 205 194 203 199 192 188 172 167 156 136 132 123 79 73 64 79 68 69 60 56 58 57 60 67 68 79 72 74 80
253 252 249 251 248 249 246 242 239 232 231 221 208 201 199 199 197 201 209 192 188 188 179 176 173 160 170 138 114 94 86 77 71 81 74 65 63 62 55 61 65 75 77 80 86
257 255 253 250 250 249 248 243 235 232 227 225 208 201 199 198 202 213 211 193 192 189 186 189 178 176 194 208 150 87 100 98 89 84 82 75 62 64 52 56 57 64 75 80 94
253 255 254 253 249 246 246 243 238 227 223 220 216 203 202 201 205 205 201 199 197 194 196 199 196 206 218 214 162 108 102 88 96 94 71 74 55 57 56 44 56 57 71 74 78
258 250 252 253 250 247 243 241 237 230 222 217 218 212 206 198 194 202 206 203 199 200 204 204 202 206 212 217 186 125 109 100 95 88 68 62 53 48 58 47 46 52 75 82 78
346 299 251 249 250 248 244 238 238 229 222 217 217 215 208 196 200 201 205 203 201 205 206 203 198 197 218 226 215 130 115 105 99 89 75 62 63 63 61 53 61 67 65 80 85
327 331 338 262 247 247 246 240 235 234 226 218 216 218 211 206 202 197 198 202 204 202 211 215 210 205 209 232 213 134 136 118 106 92 80 76 80 64 54 45 50 71 71 70 85
316 316 320 322 288 245 245 244 236 232 230 224 218 216 217 211 207 203 200 201 206 205 205 218 217 215 218 228 228 220 140 125 115 102 87 74 79 58 52 43 36 56 74 68 72
307 309 310 311 310 303 248 243 242 233 227 226 223 220 222 220 216 215 209 205 207 209 208 214 219 219 226 239 244 262 193 148 124 123 119 106 86 68 63 46 30 30 59 64 50
287 295 300 305 303 300 305 249 242 237 229 224 223 220 219 217 215 217 217 211 210 214 215 219 218 219 233 232 245 243 190 166 140 134 135 148 126 105 92 62 31 18 38 81 62
285 287 287 292 294 296 298 296 270 238 234 229 223 222 218 220 216 218 219 220 214 214 216 209 200 219 225 234 244 209 187 168 117 269 214 205 185 160 134 108 67 1 22 62 96
278 279 283 286 285 288 289 294 287 276 234 237 230 223 222 218 220 217 220 222 224 217 203 200 193 219 226 224 226 235 195 173 209 259 257 236 199 148 137 123 113 77 113 77 85
271 272 275 280 281 281 284 284 281 278 265 232 230 225 226 216 219 220 218 218 223 220 206 194 192 214 220 215 217 214 171 189 216 248 268 258 187 154 151 141 117 121 144 126 88
266 264 264 270 275 274 276 277 276 274 272 251 233 224 228 221 213 221 221 221 217 221 215 196 194 205 208 202 209 190 187 204 224 242 251 214 208 177 180 151 139 116 131 140 97
263 261 261 262 265 266 271 274 273 269 262 259 252 228 225 223 216 217 216 219 216 217 213 202 201 203 207 200 202 197 200 215 232 238 238 221 208 197 179 172 181 184 145 152 5
263 262 260 261 260 261 265 267 267 260 258 250 253 248 227 223 217 221 218 218 218 215 214 209 204 207 207 202 202 199 198 214 227 234 232 231 214 176 176 181 176 183 181 213 267
261 259 260 257 256 259 260 261 258 261 263 257 255 253 245 230 220 217 222 219 217 220 218 218 212 214 218 214 210 208 207 217 230 233 246 242 185 147 190 193 191 197 190 214 229
258 258 257 256 256 255 254 254 256 258 266 254 248 251 245 234 226 222 219 221 222 224 220 219 216 218 218 216 215 223 219 223 234 235 238 247 224 203 216 204 208 190 214 210 219
260 256 254 254 253 252 253 253 254 254 258 256 242 242 243 240 232 225 224 220 217 221 220 221 221 219 219 216 222 224 226 225 234 242 245 250 247 228 219 214 224 226 224 213 225
261 259 258 255 253 250 248 249 250 253 252 256 237 234 236 238 241 228 227 225 218 218 221 220 219 215 220 220 221 221 226 232 237 243 248 249 246 239 227 220 230 235 225 212 246
258 256 254 253 252 250 249 247 247 247 250 249 239 231 230 232 236 240 230 227 222 217 222 221 223 217 217 221 221 226 229 232 240 245 249 250 242 234 227 218 234 229 236 234 234
254 252 250 248 248 248 247 246 246 246 245 244 241 225 226 228 231 232 231 226 226 219 219 220 222 220 216 222 224 224 226 230 234 238 243 248 245 231 231 237 249 255 252 262 250
251 249 246 243 242 243 244 242 243 243 240 243 243 228 222 222 227 228 227 225 229 224 219 219 222 227 219 221 226 230 232 234 233 234 245 249 251 238 237 240 246 254 256 266 274
250 248 245 242 239 236 235 236 236 235 236 234 239 235 219 219 222 226 223 221 223 224 225 225 225 228 227 219 223 229 236 240 242 243 241 246 251 242 236 241 251 252 252 260 271
256 251 246 242 239 233 230 229 230 229 229 229 232 233 223 220 221 223 221 215 217 218 220 228 227 227 230 227 225 225 225 231 239 243 243 243 246 244 226 233 241 254 265 268 270
257 252 245 240 239 236 232 227 226 226 224 226 226 228 227 219 217 220 221 215 213 217 216 220 229 228 230 230 231 229 226 230 234 237 239 239 246 250 240 236 237 253 260 268 263
Height
5887 5887 5887 5888 5888 5889 5889 5890 5891 5891 5892 5892 5894 5895 5896 5898 5900 5903 5907 5909 5909 5911 5914 5916 5917 5917 5917 5918 5918 5918 5919 5918 5915 5914 5915 5914 5913 5914 5914 5914 5914 5912 5912 5911 5912
5883 5885 5886 5886 5886 5887 5887 5888 5888 5890 5890 5891 5892 5893 5894 5896 5899 5902 5902 5905 5909 5911 5914 5916 5917 5916 5918 5918 5919 5920 5921 5921 5919 5917 5918 5917 5917 5918 5918 5917 5917 5914 5914 5913 5914
5880 5881 5882 5884 5884 5885 5885 5886 5886 5887 5889 5889 5890 5891 5893 5895 5897 5896 5899 5904 5908 5911 5914 5916 5917 5917 5918 5919 5920 5923 5923 5922 5920 5919 5920 5920 5920 5919 5919 5919 5919 5919 5916 5918 5918
5875 5877 5878 5880 5882 5883 5883 5884 5885 5886 5887 5888 5888 5889 5891 5893 5895 5895 5900 5903 5906 5910 5913 5915 5917 5918 5919 5919 5922 5925 5924 5922 5922 5921 5923 5922 5922 5920 5921 5922 5921 5921 5920 5920 5921
5871 5872 5873 5875 5877 5879 5880 5881 5882 5884 5885 5886 5886 5887 5889 5891 5892 5895 5898 5901 5904 5908 5912 5914 5916 5917 5918 5919 5923 5926 5925 5923 5923 5924 5926 5924 5924 5924 5924 5923 5922 5923 5923 5924 5924
5866 5867 5868 5870 5872 5874 5876 5878 5880 5881 5882 5884 5885 5886 5887 5890 5892 5893 5896 5899 5902 5905 5909 5912 5914 5916 5918 5919 5924 5927 5925 5924 5924 5927 5928 5927 5926 5928 5926 5925 5924 5925 5925 5925 5926
5864 5862 5863 5865 5866 5868 5870 5874 5876 5878 5880 5881 5883 5884 5886 5889 5890 5891 5894 5897 5900 5903 5906 5908 5912 5914 5917 5919 5924 5928 5927 5925 5925 5927 5928 5928 5930 5930 5929 5927 5926 5926 5926 5927 5927
5862 5861 5860 5859 5861 5862 5865 5868 5871 5875 5877 5879 5881 5883 5885 5885 5886 5888 5891 5894 5897 5901 5904 5906 5910 5913 5915 5918 5924 5928 5928 5927 5926 5928 5929 5931 5933 5933 5932 5930 5929 5927 5926 5927 5929
5859 5858 5858 5857 5855 5856 5859 5862 5866 5870 5874 5876 5879 5880 5882 5883 5885 5887 5889 5891 5894 5898 5901 5904 5909 5911 5914 5916 5922 5926 5928 5925 5925 5927 5930 5933 5934 5934 5934 5933 5932 5929 5927 5928 5929
5857 5856 5855 5854 5853 5851 5854 5857 5861 5865 5869 5872 5874 5878 5880 5883 5886 5886 5887 5889 5892 5895 5898 5901 5906 5909 5912 5915 5920 5923 5926 5926 5925 5927 5929 5931 5933 5935 5936 5935 5934 5932 5929 5929 5930
5853 5852 5851 5851 5850 5848 5850 5851 5857 5861 5863 5865 5869 5871 5874 5878 5881 5883 5886 5887 5889 5893 5895 5899 5903 5908 5913 5914 5917 5921 5923 5925 5925 5927 5930 5930 5930 5933 5935 5936 5936 5934 5931 5930 5931
5849 5848 5847 5847 5846 5845 5846 5847 5848 5853 5856 5859 5862 5866 5869 5872 5876 5879 5882 5886 5888 5890 5894 5899 5902 5909 5910 5912 5915 5918 5922 5924 5924 5926 5929 5929 5929 5930 5932 5934 5936 5936 5934 5932 5932
5843 5843 5842 5842 5842 5840 5841 5843 5844 5844 5848 5852 5856 5861 5863 5868 5870 5875 5879 5883 5886 5889 5893 5898 5903 5905 5907 5910 5914 5916 5920 5922 5923 5925 5926 5929 5928 5928 5930 5931 5935 5936 5936 5935 5934
5837 5837 5837 5835 5837 5836 5836 5837 5838 5840 5841 5845 5847 5853 5857 5863 5866 5868 5873 5878 5882 5887 5889 5893 5897 5900 5903 5907 5911 5915 5920 5921 5923 5924 5925 5927 5929 5928 5929 5929 5933 5935 5936 5935 5935
5829 5829 5831 5830 5829 5828 5831 5830 5832 5834 5835 5836 5837 5845 5849 5856 5863 5864 5869 5871 5877 5882 5886 5892 5892 5894 5897 5904 5910 5916 5917 5918 5920 5921 5921 5924 5926 5927 5928 5929 5931 5934 5936 5935 5935
5820 5819 5823 5824 5821 5820 5822 5823 5825 5826 5826 5831 5831 5835 5840 5848 5853 5855 5859 5865 5870 5873 5879 5883 5886 5889 5895 5901 5907 5911 5912 5914 5915 5916 5916 5921 5921 5923 5926 5928 5929 5932 5934 5935 5934
5808 5808 5812 5813 5812 5811 5814 5814 5816 5814 5823 5826 5826 5828 5832 5836 5843 5847 5852 5856 5860 5864 5871 5877 5880 5885 5889 5894 5898 5902 5906 5908 5910 5911 5914 5918 5916 5921 5923 5924 5928 5930 5931 5933 5933
5793 5796 5797 5801 5801 5802 5804 5806 5805 5807 5815 5820 5821 5823 5826 5828 5834 5837 5843 5848 5853 5859 5867 5872 5876 5879 5883 5887 5894 5898 5902 5903 5904 5908 5911 5912 5915 5917 5919 5920 5923 5925 5927 5928 5929
5776 5779 5782 5785 5788 5789 5792 5792 5796 5800 5803 5811 5814 5813 5817 5820 5825 5828 5832 5842 5849 5855 5860 5864 5870 5874 5879 5886 5891 5891 5894 5902 5900 5903 5904 5907 5911 5912 5915 5917 5920 5923 5924 5926 5926
5757 5761 5763 5767 5771 5774 5777 5781 5784 5790 5792 5799 5804 5806 5808 5811 5817 5821 5824 5831 5839 5846 5852 5858 5866 5870 5875 5879 5882 5884 5892 5893 5893 5895 5897 5900 5904 5909 5912 5915 5917 5920 5921 5922 5923
5735 5740 5744 5747 5752 5755 5760 5766 5772 5776 5781 5781 5793 5795 5798 5802 5806 5814 5819 5826 5830 5837 5842 5848 5854 5863 5866 5869 5874 5878 5879 5883 5888 5889 5890 5894 5898 5906 5909 5912 5913 5916 5917 5917 5918
5709 5715 5720 5724 5731 5736 5743 5750 5756 5762 5763 5769 5776 5783 5786 5791 5797 5803 5810 5816 5822 5826 5830 5840 5843 5849 5857 5861 5865 5870 5875 5879 5879 5883 5884 5887 5893 5900 5904 5907 5908 5911 5913 5913 5912
5679 5684 5692 5700 5706 5714 5721 5729 5735 5744 5749 5752 5758 5769 5775 5780 5786 5791 5797 5806 5812 5817 5821 5827 5828 5837 5845 5850 5854 5857 5862 5867 5872 5875 5875 5880 5888 5894 5898 5902 5904 5906 5907 5908 5908
5646 5653 5660 5669 5680 5690 5697 5706 5714 5724 5732 5736 5742 5751 5760 5768 5772 5778 5785 5794 5799 5806 5810 5811 5817 5823 5834 5843 5849 5851 5857 5862 5865 5866 5870 5872 5880 5887 5891 5895 5898 5899 5901 5902 5902
5615 5622 5630 5639 5650 5660 5670 5680 5690 5700 5710 5718 5724 5734 5743 5752 5760 5765 5773 5783 5790 5795 5800 5802 5808 5816 5826 5837 5840 5844 5850 5855 5856 5861 5861 5870 5871 5879 5883 5886 5889 5892 5895 5896 5896
5590 5597 5605 5615 5622 5633 5642 5653 5664 5676 5688 5698 5706 5716 5728 5737 5746 5753 5759 5770 5781 5787 5791 5793 5801 5808 5813 5824 5829 5831 5837 5842 5848 5852 5857 5860 5864 5873 5876 5877 5880 5884 5887 5888 5890
5573 5578 5585 5594 5601 5609 5618 5629 5641 5652 5666 5675 5685 5697 5711 5723 5730 5739 5748 5760 5771 5776 5780 5784 5793 5799 5802 5812 5815 5815 5827 5833 5838 5842 5849 5851 5860 5865 5869 5870 5873 5877 5880 5881 5883